This is the latest recevied weather packets stored in our database for station/object FW7644. If no packets are shown the sender has not sent any weather packets the latest 10 day(s).
| Time | Temp. | Humidity | Pressure | Rain* | Wind** | Luminosity | Snow |
|---|---|---|---|---|---|---|---|
| 1777419479 | 13.89° C | 97% | 1019.1 hPa | 0.25 mm | - | - | - |
| 1777419177 | 13.89° C | 97% | 1019.1 hPa | 0.25 mm | - | - | - |
| 1777418876 | 13.89° C | 97% | 1019.1 hPa | 0.25 mm | - | - | - |
| 1777418574 | 13.89° C | 97% | 1019 hPa | 0.25 mm | - | - | - |
| 1777418272 | 13.89° C | 97% | 1018.9 hPa | 0 mm | - | - | - |
| 1777417970 | 13.89° C | 97% | 1018.7 hPa | 0 mm | - | - | - |
| 1777417669 | 13.89° C | 97% | 1018.8 hPa | 0 mm | - | - | - |
| 1777417367 | 13.89° C | 97% | 1018.7 hPa | 0 mm | - | - | - |
| 1777417065 | 13.89° C | 97% | 1018.7 hPa | 0.25 mm | - | - | - |
| 1777416763 | 13.89° C | 97% | 1018.7 hPa | 0.25 mm | - | - | - |
| 1777416462 | 13.89° C | 97% | 1018.7 hPa | 1.02 mm | - | - | - |
| 1777416160 | 13.89° C | 97% | 1018.6 hPa | 1.02 mm | - | - | - |
| 1777415858 | 13.89° C | 96% | 1018.5 hPa | 1.78 mm | - | - | - |
| 1777415556 | 13.89° C | 96% | 1018.6 hPa | 1.78 mm | - | - | - |
| 1777415255 | 13.89° C | 96% | 1018.6 hPa | 1.78 mm | - | - | - |
| 1777414954 | 13.89° C | 96% | 1018.6 hPa | 1.78 mm | - | - | - |
| 1777414652 | 13.89° C | 96% | 1018.6 hPa | 1.78 mm | - | - | - |
| 1777414350 | 13.89° C | 96% | 1018.6 hPa | 1.78 mm | - | - | - |
| 1777414048 | 13.89° C | 96% | 1018.6 hPa | 1.78 mm | - | - | - |
| 1777413746 | 13.89° C | 96% | 1018.5 hPa | 1.78 mm | - | - | - |
| 1777413444 | 13.89° C | 96% | 1018.3 hPa | 2.29 mm | - | - | - |
| 1777413142 | 13.89° C | 96% | 1018.3 hPa | 2.29 mm | - | - | - |
| 1777412841 | 13.89° C | 96% | 1018.3 hPa | 2.54 mm | - | - | - |
| 1777412539 | 13.89° C | 96% | 1018.3 hPa | 2.03 mm | - | - | - |
| 1777412237 | 13.89° C | 96% | 1018.3 hPa | 1.78 mm | - | - | - |
* Rain latest hour (hover to see other rain measurements)
** Current wind speed in m/s (hover to see current wind gust speed)